Back to catalog

CZ-6A DEB

AlivePO
NORAD 60634·DEBRIS·🇨🇳 China

Launched Aug 6, 2024 from Taiyuan Satellite Launch Center

Loading…

Next Passes (next 24 hours)

TLE

FreshSource: Space-Track

Epoch: Sep 14, 2026, 06:24 UTC

1 60634U 24140AK  26257.26721194  .00006288  00000-0  47456-3 0  9997
2 60634  89.0575 261.8844 0126662 186.6843 173.2707 14.96011438113747

Track CZ-6A DEB in real time with AllMySat

Download on the App Store